| time (UTC) | temp C | wind direction | speed KPH | gust KPH | rain 1hr cm | rain 24hr cm | rain mn cm | humidity % | barometer mb |
| 20260906175719 | 22 | 100 | 6.4 | 14.5 | 0.00 | 0.00 | 0.00 | 83 | 1020.7 |
| 20260906174721 | 22 | 141 | 4.8 | 14.5 | 0.00 | 0.00 | 0.00 | 83 | 1021.0 |
| 20260906173721 | 22 | 138 | 6.4 | 12.9 | 0.00 | 0.00 | 0.00 | 83 | 1021.2 |
| 20260906172745 | 22 | 115 | 1.6 | 14.5 | 0.00 | 0.00 | 0.00 | 83 | 1021.3 |
| 20260906171753 | 22 | 103 | 3.2 | 12.9 | 0.00 | 0.00 | 0.00 | 84 | 1021.5 |
| 20260906170720 | 22 | 136 | 4.8 | 14.5 | 0.00 | 0.00 | 0.00 | 84 | 1021.5 |
| 20260906165721 | 22 | 114 | 4.8 | 12.9 | 0.00 | 0.00 | 0.00 | 84 | 1021.5 |
| 20260906164731 | 22 | 149 | 6.4 | 16.1 | 0.00 | 0.00 | 0.00 | 84 | 1021.4 |
| 20260906163739 | 22 | 98 | 3.2 | 14.5 | 0.00 | 0.00 | 0.00 | 85 | 1021.5 |
| 20260906162722 | 22 | 90 | 9.7 | 19.3 | 0.00 | 0.00 | 0.00 | 84 | 1021.3 |
| 20260906161723 | 22 | 95 | 6.4 | 12.9 | 0.00 | 0.00 | 0.00 | 84 | 1021.4 |
| 20260906160751 | 22 | 149 | 3.2 | 12.9 | 0.00 | 0.00 | 0.00 | 83 | 1021.4 |
| 20260906155720 | 22 | 157 | 3.2 | 16.1 | 0.00 | 0.00 | 0.00 | 84 | 1021.3 |
| 20260906154721 | 22 | 164 | 4.8 | 17.7 | 0.00 | 0.00 | 0.00 | 85 | 1021.3 |
| 20260906153744 | 21 | 149 | 6.4 | 12.9 | 0.00 | 0.00 | 0.00 | 85 | 1021.3 |
| 20260906152718 | 21 | 154 | 6.4 | 16.1 | 0.00 | 0.00 | 0.00 | 86 | 1021.3 |
| 20260906151721 | 21 | 124 | 4.8 | 11.3 | 0.00 | 0.00 | 0.00 | 88 | 1021.3 |
| 20260906150731 | 21 | 97 | 8.0 | 14.5 | 0.00 | 0.00 | 0.00 | 88 | 1021.2 |
| 20260906145719 | 21 | 135 | 8.0 | 16.1 | 0.00 | 0.00 | 0.00 | 88 | 1021.4 |
| 20260906144725 | 21 | 111 | 4.8 | 14.5 | 0.00 | 0.00 | 0.00 | 90 | 1021.4 |
| 20260906143732 | 20 | 103 | 6.4 | 16.1 | 0.00 | 0.00 | 0.00 | 91 | 1021.2 |
| 20260906142738 | 20 | 130 | 6.4 | 16.1 | 0.00 | 0.00 | 0.00 | 91 | 1021.1 |
| 20260906141729 | 20 | 151 | 6.4 | 17.7 | 0.00 | 0.00 | 0.00 | 92 | 1021.2 |
| 20260906140730 | 20 | 98 | 1.6 | 17.7 | 0.00 | 0.00 | 0.00 | 93 | 1021.1 |
| 20260906135739 | 20 | 82 | 8.0 | 17.7 | 0.00 | 0.00 | 0.00 | 92 | 1021.3 |
| 20260906134743 | 20 | 82 | 6.4 | 12.9 | 0.00 | 0.00 | 0.00 | 93 | 1021.4 |
| 20260906133732 | 20 | 102 | 4.8 | 12.9 | 0.00 | 0.00 | 0.00 | 93 | 1021.2 |
| 20260906132719 | 20 | 89 | 6.4 | 16.1 | 0.00 | 0.00 | 0.00 | 94 | 1021.2 |
| 20260906131744 | 20 | 104 | 3.2 | 17.7 | 0.00 | 0.00 | 0.00 | 94 | 1021.0 |
| 20260906130718 | 20 | 134 | 4.8 | 12.9 | 0.00 | 0.00 | 0.00 | 94 | 1020.9 |
| 20260906125750 | 20 | 96 | 4.8 | 14.5 | 0.00 | 0.00 | 0.00 | 94 | 1020.7 |
| 20260906124716 | 20 | 113 | 4.8 | 12.9 | 0.00 | 0.00 | 0.00 | 94 | 1020.6 |
| 20260906123733 | 20 | 110 | 4.8 | 12.9 | 0.00 | 0.00 | 0.00 | 94 | 1020.6 |
| 20260906122718 | 20 | 101 | 4.8 | 22.5 | 0.00 | 0.00 | 0.00 | 95 | 1020.6 |
| 20260906121719 | 20 | 96 | 3.2 | 17.7 | 0.00 | 0.00 | 0.00 | 95 | 1020.5 |
| 20260906120744 | 20 | 112 | 6.4 | 16.1 | 0.00 | 0.00 | 0.00 | 95 | 1020.2 |
| 20260906115728 | 20 | 99 | 4.8 | 9.7 | 0.00 | 0.03 | 0.00 | 95 | 1020.3 |
| 20260906114716 | 20 | 78 | 6.4 | 16.1 | 0.00 | 0.03 | 0.00 | 95 | 1020.2 |
| 20260906113726 | 20 | 144 | 6.4 | 12.9 | 0.00 | 0.03 | 0.00 | 96 | 1020.1 |
| 20260906112730 | 20 | 128 | 4.8 | 12.9 | 0.00 | 0.03 | 0.00 | 96 | 1020.0 |
| 20260906111717 | 19 | 116 | 3.2 | 12.9 | 0.00 | 0.03 | 0.00 | 96 | 1020.0 |
| 20260906110724 | 19 | 114 | 4.8 | 12.9 | 0.00 | 0.03 | 0.00 | 96 | 1020.1 |
| 20260906105720 | 19 | 92 | 4.8 | 9.7 | 0.00 | 0.03 | 0.00 | 96 | 1020.2 |
| 20260906104717 | 18 | 88 | 0.0 | 0.0 | 0.00 | 0.03 | 0.00 | 96 | 1020.1 |
| 20260906103723 | 18 | 88 | 0.0 | 0.0 | 0.00 | 0.03 | 0.00 | 95 | 1020.0 |
| 20260906102729 | 18 | 88 | 0.0 | 0.0 | 0.00 | 0.03 | 0.00 | 95 | 1019.7 |
| 20260906101716 | 18 | 88 | 0.0 | 0.0 | 0.00 | 0.03 | 0.00 | 95 | 1019.7 |
| 20260906100732 | 18 | 88 | 0.0 | 0.0 | 0.00 | 0.03 | 0.00 | 94 | 1019.6 |
| 20260906095729 | 18 | 88 | 0.0 | 0.0 | 0.00 | 0.03 | 0.00 | 94 | 1019.6 |
| 20260906094732 | 18 | 88 | 0.0 | 0.0 | 0.00 | 0.03 | 0.00 | 94 | 1019.3 |
| 20260906093717 | 19 | 88 | 0.0 | 0.0 | 0.00 | 0.03 | 0.00 | 94 | 1019.3 |
| 20260906092751 | 19 | 88 | 0.0 | 0.0 | 0.00 | 0.03 | 0.00 | 94 | 1018.9 |
| 20260906091731 | 19 | 88 | 0.0 | 6.4 | 0.00 | 0.03 | 0.00 | 94 | 1019.0 |
| 20260906090720 | 19 | 88 | 1.6 | 9.7 | 0.00 | 0.03 | 0.00 | 94 | 1018.9 |
| 20260906085727 | 20 | 88 | 3.2 | 6.4 | 0.00 | 0.03 | 0.00 | 94 | 1018.7 |
| 20260906084720 | 20 | 88 | 3.2 | 9.7 | 0.00 | 0.03 | 0.00 | 94 | 1018.6 |
| 20260906083719 | 20 | 88 | 4.8 | 11.3 | 0.00 | 0.03 | 0.00 | 94 | 1018.5 |
| 20260906082723 | 20 | 88 | 4.8 | 12.9 | 0.00 | 0.03 | 0.00 | 94 | 1018.6 |
| 20260906081730 | 20 | 88 | 4.8 | 11.3 | 0.00 | 0.03 | 0.00 | 94 | 1018.7 |
| 20260906080730 | 20 | 88 | 3.2 | 11.3 | 0.00 | 0.03 | 0.00 | 94 | 1018.9 |
| 20260906075731 | 20 | 88 | 3.2 | 11.3 | 0.00 | 0.03 | 0.00 | 94 | 1019.0 |
| 20260906074716 | 20 | 86 | 4.8 | 11.3 | 0.00 | 0.03 | 0.00 | 94 | 1019.0 |
| 20260906073731 | 20 | 84 | 4.8 | 11.3 | 0.00 | 0.03 | 0.00 | 94 | 1019.1 |
| 20260906072752 | 20 | 84 | 4.8 | 11.3 | 0.00 | 0.03 | 0.00 | 94 | 1019.1 |
| 20260906071721 | 20 | 84 | 4.8 | 9.7 | 0.00 | 0.03 | 0.00 | 94 | 1019.2 |
| 20260906070743 | 20 | 84 | 3.2 | 9.7 | 0.00 | 0.03 | 0.00 | 94 | 1019.1 |
| 20260906065728 | 20 | 84 | 3.2 | 9.7 | 0.00 | 0.03 | 0.00 | 94 | 1019.2 |
| 20260906064717 | 20 | 84 | 3.2 | 8.0 | 0.00 | 0.03 | 0.00 | 94 | 1019.3 |
| 20260906063731 | 20 | 84 | 1.6 | 3.2 | 0.00 | 0.03 | 0.00 | 94 | 1019.4 |
| 20260906062716 | 20 | 84 | 1.6 | 6.4 | 0.00 | 0.03 | 0.00 | 94 | 1019.5 |
| 20260906061725 | 20 | 84 | 0.0 | 0.0 | 0.00 | 0.03 | 0.00 | 94 | 1019.6 |
| 20260906060732 | 20 | 84 | 0.0 | 0.0 | 0.00 | 0.03 | 0.00 | 94 | 1019.5 |
| 20260906055738 | 20 | 84 | 0.0 | 1.6 | 0.00 | 0.03 | 0.00 | 94 | 1019.6 |
| 20260906054722 | 20 | 84 | 1.6 | 4.8 | 0.00 | 0.03 | 0.00 | 94 | 1019.6 |
| 20260906053724 | 20 | 84 | 0.0 | 4.8 | 0.00 | 0.03 | 0.00 | 93 | 1019.6 |
| 20260906052731 | 20 | 84 | 1.6 | 6.4 | 0.00 | 0.03 | 0.00 | 94 | 1019.7 |
| 20260906051717 | 21 | 84 | 1.6 | 6.4 | 0.00 | 0.03 | 0.00 | 94 | 1019.6 |
| 20260906050724 | 21 | 84 | 1.6 | 4.8 | 0.00 | 0.03 | 0.00 | 94 | 1019.6 |
| 20260906045728 | 20 | 84 | 0.0 | 4.8 | 0.00 | 0.03 | 0.03 | 94 | 1019.6 |
| 20260906044716 | 20 | 84 | 3.2 | 6.4 | 0.00 | 0.03 | 0.03 | 94 | 1019.4 |
| 20260906043725 | 20 | 84 | 3.2 | 6.4 | 0.00 | 0.03 | 0.03 | 94 | 1019.5 |
| 20260906042750 | 20 | 84 | 0.0 | 6.4 | 0.00 | 0.03 | 0.03 | 94 | 1019.6 |
| 20260906041732 | 21 | 84 | 1.6 | 4.8 | 0.00 | 0.03 | 0.03 | 93 | 1019.5 |
| 20260906040751 | 21 | 84 | 1.6 | 3.2 | 0.00 | 0.03 | 0.03 | 93 | 1019.6 |
| 20260906035718 | 21 | 84 | 1.6 | 4.8 | 0.00 | 0.03 | 0.03 | 93 | 1019.4 |
| 20260906034746 | 21 | 84 | 0.0 | 4.8 | 0.00 | 0.03 | 0.03 | 93 | 1019.5 |
| 20260906033728 | 21 | 84 | 1.6 | 9.7 | 0.00 | 0.03 | 0.03 | 93 | 1019.7 |
| 20260906032753 | 21 | 84 | 1.6 | 6.4 | 0.00 | 0.03 | 0.03 | 93 | 1019.6 |
| 20260906031731 | 21 | 85 | 0.0 | 3.2 | 0.00 | 0.03 | 0.03 | 92 | 1019.5 |
| 20260906030741 | 21 | 84 | 0.0 | 3.2 | 0.00 | 0.03 | 0.03 | 92 | 1019.5 |
| 20260906025731 | 21 | 84 | 1.6 | 4.8 | 0.00 | 0.03 | 0.03 | 92 | 1019.4 |
| 20260906024730 | 21 | 84 | 1.6 | 6.4 | 0.00 | 0.03 | 0.03 | 92 | 1019.3 |
| 20260906023720 | 21 | 84 | 3.2 | 9.7 | 0.00 | 0.03 | 0.03 | 92 | 1019.0 |
| 20260906022728 | 21 | 84 | 0.0 | 0.0 | 0.00 | 0.03 | 0.03 | 92 | 1018.9 |
| 20260906021731 | 21 | 84 | 0.0 | 0.0 | 0.00 | 0.03 | 0.03 | 92 | 1018.9 |
| 20260906020732 | 21 | 84 | 0.0 | 4.8 | 0.00 | 0.03 | 0.03 | 92 | 1018.7 |
| 20260906015716 | 21 | 84 | 1.6 | 3.2 | 0.00 | 0.03 | 0.03 | 92 | 1018.6 |
| 20260906014750 | 22 | 84 | 0.0 | 3.2 | 0.00 | 0.03 | 0.03 | 91 | 1018.5 |
| 20260906013720 | 22 | 84 | 0.0 | 0.0 | 0.00 | 0.03 | 0.03 | 91 | 1018.3 |
| 20260906012751 | 22 | 84 | 0.0 | 0.0 | 0.00 | 0.03 | 0.03 | 90 | 1018.3 |
| 20260906011730 | 22 | 84 | 0.0 | 0.0 | 0.00 | 0.03 | 0.03 | 90 | 1018.1 |
| 20260906010730 | 22 | 84 | 0.0 | 3.2 | 0.00 | 0.03 | 0.03 | 90 | 1017.9 |
| 20260906005722 | 22 | 84 | 0.0 | 3.2 | 0.00 | 0.03 | 0.03 | 89 | 1017.9 |
| 20260906004752 | 22 | 84 | 0.0 | 3.2 | 0.00 | 0.03 | 0.03 | 89 | 1017.7 |
| 20260906003729 | 22 | 84 | 1.6 | 4.8 | 0.00 | 0.03 | 0.03 | 89 | 1017.7 |
| 20260906002719 | 23 | 84 | 0.0 | 0.0 | 0.00 | 0.03 | 0.03 | 88 | 1017.6 |
| 20260906001727 | 23 | 84 | 0.0 | 0.0 | 0.00 | 0.03 | 0.03 | 88 | 1017.5 |
| 20260906000721 | 23 | 84 | 1.6 | 3.2 | 0.00 | 0.03 | 0.03 | 87 | 1017.5 |
| 20260905235749 | 23 | 84 | 0.0 | 6.4 | 0.00 | 0.03 | 0.03 | 87 | 1017.6 |
| 20260905234716 | 23 | 85 | 1.6 | 11.3 | 0.00 | 0.03 | 0.03 | 86 | 1017.5 |
| 20260905233720 | 23 | 87 | 1.6 | 9.7 | 0.00 | 0.03 | 0.03 | 86 | 1017.5 |
| 20260905232730 | 23 | 88 | 1.6 | 9.7 | 0.00 | 0.03 | 0.03 | 86 | 1017.5 |
| 20260905231730 | 24 | 94 | 3.2 | 14.5 | 0.00 | 0.03 | 0.03 | 85 | 1017.4 |
| 20260905230719 | 24 | 71 | 1.6 | 9.7 | 0.00 | 0.03 | 0.03 | 85 | 1017.4 |
| 20260905225724 | 24 | 44 | 3.2 | 14.5 | 0.00 | 0.03 | 0.03 | 85 | 1017.3 |
| 20260905224716 | 24 | 82 | 4.8 | 12.9 | 0.00 | 0.03 | 0.03 | 85 | 1017.3 |
| 20260905223733 | 24 | 82 | 3.2 | 12.9 | 0.00 | 0.03 | 0.03 | 84 | 1017.3 |
| 20260905222717 | 24 | 106 | 6.4 | 17.7 | 0.00 | 0.03 | 0.03 | 84 | 1017.3 |
| 20260905221741 | 24 | 60 | 3.2 | 6.4 | 0.00 | 0.03 | 0.03 | 85 | 1017.2 |
| 20260905220727 | 24 | 57 | 6.4 | 16.1 | 0.00 | 0.03 | 0.03 | 84 | 1017.2 |
| 20260905215721 | 24 | 93 | 6.4 | 16.1 | 0.00 | 0.03 | 0.03 | 84 | 1017.0 |
| 20260905214728 | 24 | 64 | 8.0 | 19.3 | 0.00 | 0.03 | 0.03 | 84 | 1016.8 |
| 20260905213735 | 24 | 96 | 12.9 | 22.5 | 0.00 | 0.03 | 0.03 | 83 | 1016.6 |
| 20260905212717 | 24 | 53 | 9.7 | 20.9 | 0.00 | 0.03 | 0.03 | 83 | 1016.7 |
| 20260905211727 | 24 | 61 | 9.7 | 19.3 | 0.00 | 0.03 | 0.03 | 85 | 1016.7 |
| 20260905210720 | 24 | 81 | 11.3 | 24.1 | 0.00 | 0.03 | 0.03 | 85 | 1016.6 |
| 20260905205729 | 23 | 44 | 8.0 | 22.5 | 0.00 | 0.03 | 0.03 | 85 | 1016.8 |
| 20260905204716 | 23 | 66 | 11.3 | 20.9 | 0.00 | 0.03 | 0.03 | 84 | 1016.9 |
| 20260905203719 | 24 | 61 | 11.3 | 20.9 | 0.00 | 0.03 | 0.03 | 85 | 1017.0 |
| 20260905202731 | 24 | 53 | 8.0 | 20.9 | 0.00 | 0.03 | 0.03 | 85 | 1017.1 |
| 20260905201730 | 24 | 64 | 8.0 | 19.3 | 0.00 | 0.03 | 0.03 | 85 | 1017.3 |
| 20260905200720 | 24 | 48 | 9.7 | 24.1 | 0.00 | 0.03 | 0.03 | 85 | 1017.5 |
| 20260905195743 | 24 | 36 | 9.7 | 19.3 | 0.00 | 0.03 | 0.03 | 86 | 1017.6 |
| 20260905194744 | 23 | 58 | 8.0 | 16.1 | 0.00 | 0.03 | 0.03 | 86 | 1017.9 |
| 20260905193737 | 23 | 57 | 9.7 | 17.7 | 0.00 | 0.03 | 0.03 | 86 | 1017.9 |
| 20260905192720 | 23 | 59 | 4.8 | 19.3 | 0.00 | 0.03 | 0.03 | 87 | 1018.3 |
| 20260905191737 | 23 | 65 | 4.8 | 19.3 | 0.00 | 0.03 | 0.03 | 87 | 1018.3 |
| 20260905190724 | 23 | 59 | 8.0 | 11.3 | 0.00 | 0.03 | 0.03 | 88 | 1018.7 |
| 20260905185717 | 23 | 60 | 3.2 | 11.3 | 0.00 | 0.03 | 0.03 | 88 | 1018.9 |
| 20260905184754 | 23 | 57 | 4.8 | 16.1 | 0.00 | 0.03 | 0.03 | 88 | 1018.9 |
| 20260905183733 | 23 | 47 | 4.8 | 8.0 | 0.00 | 0.03 | 0.03 | 88 | 1019.1 |
| 20260905182749 | 23 | 47 | 3.2 | 6.4 | 0.00 | 0.03 | 0.03 | 89 | 1019.3 |
| 20260905181716 | 22 | 47 | 0.0 | 6.4 | 0.00 | 0.03 | 0.03 | 91 | 1019.4 |
| 20260905180724 | 22 | 47 | 1.6 | 14.5 | 0.00 | 0.03 | 0.03 | 91 | 1019.4 |